W9SIG Weather Reports


time (UTC)temp
C
wind
direction
speed
KPH
gust
KPH
rain 1hr
cm
rain 24hr
cm
rain mn
cm
humidity
%
barometer
mb
20260509085651 11 215 0.0 0.0 0.05 1.78 0.89 1 1008.0
20260509085151 11 215 0.0 3.2 0.08 1.78 0.89 1 1008.1
20260509084651 11 215 1.6 3.2 0.08 1.78 0.89 1 1008.1
20260509084151 12 213 0.0 3.2 0.10 1.78 0.89 1 1008.2
20260509083649 12 205 0.0 3.2 0.13 1.78 0.89 1 1008.2
20260509083152 12 205 0.0 3.2 0.15 1.78 0.89 1 1008.4
20260509083148 12 205 0.0 3.2 0.13 1.78 0.89 1 1008.2
20260509082148 12 204 1.6 3.2 0.18 1.78 0.89 1 1008.5
20260509081647 12 204 1.6 4.8 0.20 1.78 0.89 1 1008.6
20260509081147 12 204 1.6 4.8 0.23 1.78 0.89 1 1008.6
20260509080647 12 204 1.6 4.8 0.23 1.78 0.89 1 1008.5
20260509080152 12 207 1.6 4.8 0.18 1.70 0.81 1 1008.6
20260509080147 12 182 1.6 4.8 0.23 1.75 0.86 1 1008.5
20260509075647 12 202 1.6 4.8 0.20 1.73 0.86 1 1008.5
20260509075252 12 207 1.6 6.4 0.20 1.70 0.81 1 1008.8
20260509074147 12 194 1.6 6.4 0.20 1.68 0.79 1 1008.7
20260509073648 12 208 1.6 6.4 0.20 1.65 0.76 1 1008.7
20260509073148 12 209 1.6 4.8 0.20 1.65 0.76 1 1008.8
20260509072648 12 190 3.2 6.4 0.20 1.63 0.74 1 1009.1
20260509072147 12 199 1.6 11.3 0.18 1.60 0.71 1 1009.1
20260509071647 12 219 1.6 11.3 0.18 1.57 0.69 1 1009.3
20260509071147 12 190 1.6 4.8 0.15 1.55 0.66 1 1009.4
20260509070648 12 190 1.6 4.8 0.15 1.55 0.66 1 1009.5
20260509070148 12 190 0.0 4.8 0.13 1.52 0.64 1 1009.4
20260509065648 12 320 0.0 4.8 0.13 1.52 0.64 1 1009.1
20260509065148 12 320 1.6 4.8 0.13 1.52 0.64 1 1009.2
20260509064648 12 148 1.6 4.8 0.10 1.50 0.61 1 1009.1
20260509064147 12 118 1.6 3.2 0.08 1.47 0.58 1 1009.3
20260509063647 12 118 1.6 3.2 0.05 1.45 0.58 1 1009.7
20260509063145 12 258 1.6 3.2 0.05 1.45 0.56 1 1009.9
20260509062644 12 258 1.6 3.2 0.05 1.42 0.53 1 1009.8
20260509062142 12 263 1.6 3.2 0.10 1.42 0.53 1 1009.9
20260509061642 12 263 0.0 3.2 0.10 1.40 0.51 1 1009.8
20260509061142 12 263 0.0 3.2 0.13 1.40 0.51 1 1009.8
20260509060642 12 263 1.6 4.8 0.15 1.40 0.51 1 1009.9
20260509060142 12 263 1.6 4.8 0.18 1.40 0.51 1 1009.9
20260509055642 12 171 1.6 3.2 0.20 1.40 0.51 1 1009.9
20260509055140 12 171 1.6 4.8 0.25 1.40 0.51 1 1009.7
20260509054641 12 215 1.6 4.8 0.28 1.40 0.51 1 1009.7
20260509054140 12 215 1.6 3.2 0.30 1.40 0.51 1 1009.8
20260509053640 12 216 0.0 3.2 0.33 1.40 0.51 1 1009.9
20260509053141 12 216 0.0 1.6 0.36 1.40 0.51 1 1010.0
20260509052640 12 216 0.0 1.6 0.36 1.37 0.48 1 1010.2
20260509052140 12 216 0.0 3.2 0.33 1.32 0.43 1 1010.3
20260509051640 12 216 0.0 3.2 0.33 1.30 0.41 1 1010.3
20260509051140 12 216 0.0 3.2 0.33 1.27 0.38 1 1010.2
20260509050639 12 215 0.0 3.2 0.33 1.24 0.36 1 1010.3
20260509050142 12 212 0.0 3.2 0.33 1.19 0.30 1 1010.5
20260509050138 12 215 0.0 3.2 0.33 1.22 0.33 1 1010.5
20260509045139 12 212 0.0 3.2 0.30 1.14 0.28 1 1010.5
20260509044641 12 217 1.6 4.8 0.28 1.07 0.18 1 1010.5
20260509044636 12 212 1.6 4.8 0.30 1.12 0.23 1 1010.5
20260509044136 12 212 1.6 4.8 0.28 1.09 0.20 1 1010.6
20260509043136 12 194 1.6 4.8 0.28 1.04 0.15 1 1010.5
20260509042634 12 189 1.6 4.8 0.28 1.02 0.13 1 1010.5
20260509042134 12 315 1.6 4.8 0.28 0.99 0.10 1 1010.4
20260509041634 12 220 1.6 8.0 0.28 0.97 0.08 1 1010.5
20260509041138 12 192 1.6 3.2 0.25 0.91 0.03 1 1010.4
20260509041134 12 206 1.6 8.0 0.28 0.94 0.05 1 1010.4
20260509040740 12 192 1.6 3.2 0.28 0.89 0.00 1 1010.3
20260509035639 12 203 0.0 4.8 0.25 0.84 0.84 1 1010.4
20260509035634 12 203 1.6 4.8 0.25 0.86 0.86 1 1010.4
20260509034638 12 148 0.0 3.2 0.23 0.81 0.81 1 1010.4
20260509034634 12 148 0.0 3.2 0.23 0.81 0.81 1 1010.4
20260509033634 12 148 0.0 3.2 0.20 0.79 0.79 1 1010.4
20260509033134 12 148 0.0 3.2 0.18 0.76 0.76 1 1010.5
20260509032638 12 148 0.0 3.2 0.13 0.71 0.71 1 1010.7
20260509032634 12 148 0.0 3.2 0.15 0.74 0.74 1 1010.6
20260509032239 12 148 1.6 3.2 0.10 0.69 0.69 1 1010.6
20260509031132 12 148 0.0 3.2 0.08 0.66 0.66 1 1010.6
20260509030632 12 128 0.0 3.2 0.08 0.66 0.66 1 1010.7
20260509030132 12 128 0.0 3.2 0.03 0.61 0.64 1 1010.8
20260509025630 12 128 0.0 1.6 0.03 0.61 0.61 1 1010.8
20260509025127 12 128 0.0 1.6 0.00 0.58 0.58 1 1010.7
20260509024628 12 128 0.0 1.6 0.00 0.58 0.58 1 1010.7
20260509024126 12 128 0.0 1.6 0.03 0.58 0.58 1 1010.7
20260509023626 12 128 0.0 1.6 0.03 0.58 0.58 1 1010.5
20260509023131 12 128 0.0 1.6 0.08 0.58 0.58 1 1010.5
20260509023126 12 128 0.0 1.6 0.03 0.58 0.58 1 1010.5
20260509022126 12 128 0.0 1.6 0.13 0.58 0.58 1 1010.5
20260509021631 13 128 0.0 1.6 0.20 0.58 0.58 1 1010.4
20260509021626 13 128 0.0 1.6 0.18 0.58 0.58 1 1010.5
20260509020625 13 128 0.0 1.6 0.25 0.58 0.58 1 1010.5
20260509020126 13 128 0.0 1.6 0.30 0.58 0.58 1 1010.5
20260509015625 13 128 0.0 1.6 0.33 0.58 0.58 1 1010.6
20260509015125 13 128 0.0 1.6 0.36 0.58 0.58 1 1010.4
20260509014626 13 128 0.0 0.0 0.38 0.58 0.58 1 1010.2
20260509014126 13 128 0.0 0.0 0.36 0.56 0.56 1 1010.3
20260509013625 13 128 0.0 0.0 0.36 0.56 0.56 1 1010.3
20260509013125 13 128 0.0 3.2 0.36 0.56 0.56 1 1010.3
20260509012626 13 128 1.6 6.4 0.30 0.51 0.51 1 1010.3
20260509012125 13 128 1.6 6.4 0.28 0.46 0.46 1 1010.3
20260509011632 13 122 1.6 4.8 0.15 0.33 0.33 1 1010.4
20260509011626 13 130 1.6 4.8 0.23 0.41 0.41 1 1010.6
20260509011126 13 130 1.6 4.8 0.20 0.38 0.38 1 1010.6
20260509010125 13 43 0.0 1.6 0.10 0.28 0.30 1 1010.5
20260509005624 13 43 0.0 3.2 0.08 0.25 0.25 1 1010.5
20260509005124 13 43 0.0 3.2 0.05 0.23 0.23 1 1010.3
20260509004621 13 43 0.0 0.0 0.03 0.20 0.20 1 1010.2
20260509004121 13 43 0.0 1.6 0.03 0.20 0.20 1 1010.1
20260509003620 13 43 0.0 3.2 0.03 0.20 0.20 1 1010.2
20260509003115 13 43 1.6 3.2 0.03 0.20 0.20 1 1010.2
20260509002720 13 43 0.0 3.2 0.03 0.18 0.18 1 1010.4
20260509002618 13 43 0.0 1.6 0.05 0.20 0.20 1 1010.3
20260509002614 13 43 0.0 3.2 0.03 0.18 0.20 1 1010.3
20260509001111 13 43 0.0 1.6 0.05 0.18 0.18 1 1010.6
20260509000612 13 43 0.0 1.6 0.05 0.18 0.18 1 1010.7
20260509000109 13 43 0.0 3.2 0.05 0.18 0.18 1 1010.7
20260508235609 13 43 0.0 3.2 0.05 0.18 0.18 1 1010.6
20260508235110 13 43 0.0 4.8 0.05 0.18 0.18 1 1010.5
20260508234610 13 43 0.0 4.8 0.05 0.18 0.18 1 1010.5
20260508234109 14 30 0.0 3.2 0.05 0.18 0.18 1 1010.5
20260508233609 14 30 1.6 8.0 0.08 0.18 0.18 1 1010.5
20260508233109 14 30 1.6 8.0 0.08 0.18 0.18 1 1010.5
20260508232607 14 29 1.6 4.8 0.05 0.15 0.15 1 1010.5
20260508232108 14 28 1.6 4.8 0.05 0.15 0.15 1 1010.8
20260508231606 14 27 1.6 9.7 0.05 0.15 0.15 1 1010.8
20260508231105 14 26 3.2 9.7 0.03 0.13 0.13 1 1010.8
20260508230606 15 290 3.2 9.7 0.05 0.13 0.13 1 1010.7
20260508230105 15 17 1.6 8.0 0.05 0.13 0.13 1 1010.7
20260508225605 15 18 0.0 3.2 0.05 0.13 0.13 1 1010.7
20260508225110 15 18 0.0 3.2 0.08 0.13 0.13 1 1010.5
20260508225106 15 18 0.0 3.2 0.05 0.13 0.13 1 1010.5
20260508224105 15 18 0.0 3.2 0.08 0.13 0.13 1 1010.5
20260508223605 15 18 0.0 3.2 0.05 0.10 0.13 1 1010.5
20260508223105 15 18 1.6 3.2 0.05 0.10 0.10 1 1010.4
20260508222608 15 18 0.0 3.2 0.05 0.10 0.10 1 1010.5
20260508222604 15 18 0.0 4.8 0.08 0.10 0.10 1 1010.5
20260508221603 15 18 1.6 4.8 0.08 0.10 0.10 1 1010.6
20260508221103 15 17 1.6 4.8 0.08 0.10 0.10 1 1010.5
20260508220603 15 134 0.0 3.2 0.05 0.08 0.08 1 1010.5
20260508220104 15 134 0.0 3.2 0.05 0.08 0.08 3 1010.3
20260508215603 15 159 0.0 3.2 0.05 0.08 0.08 9 1010.4
20260508215107 16 31 1.6 6.4 0.05 0.05 0.08 19 1010.4
20260508215103 16 291 1.6 4.8 0.08 0.08 0.08 11 1010.4
20260508214107 16 5 1.6 3.2 0.05 0.05 0.05 24 1010.5
20260508214103 16 5 0.0 6.4 0.05 0.05 0.05 22 1010.5
20260508213602 16 5 1.6 3.2 0.05 0.05 0.05 30 1010.4
20260508212601 16 163 0.0 1.6 0.05 0.05 0.05 35 1010.4
20260508212101 16 163 0.0 0.0 0.03 0.03 0.03 40 1010.6
20260508211602 16 163 0.0 1.6 0.03 0.03 0.03 42 1010.4
20260508211101 17 163 0.0 1.6 0.03 0.03 0.03 48 1010.2
20260508210601 17 229 0.0 1.6 0.03 0.03 0.03 52 1010.1
20260508210106 17 229 0.0 1.6 0.03 0.03 0.03 58 1010.2
20260508205101 17 229 0.0 1.6 0.00 0.00 0.00 60 1010.2
20260508204600 17 229 0.0 3.2 0.00 0.00 0.00 61 1010.2
20260508204058 17 229 0.0 4.8 0.00 0.00 0.00 62 1010.2
20260508203558 17 229 1.6 4.8 0.00 0.00 0.00 63 1010.1
20260508203058 17 229 1.6 4.8 0.00 0.00 0.00 63 1010.2
20260508202559 17 229 1.6 6.4 0.00 0.00 0.00 64 1010.2
20260508202103 18 100 3.2 16.1 0.00 0.00 0.00 64 1010.5
20260508202059 17 243 3.2 16.1 0.00 0.00 0.00 64 1010.3
20260508201704 18 234 1.6 11.3 0.00 0.00 0.00 64 1010.4
20260508200559 18 232 1.6 9.7 0.00 0.00 0.00 64 1010.5
20260508200059 18 223 1.6 4.8 0.00 0.00 0.00 64 1010.7
20260508195558 18 224 3.2 9.7 0.00 0.00 0.00 63 1010.7
20260508195056 18 232 3.2 9.7 0.00 0.00 0.00 63 1010.7
20260508194556 18 226 3.2 9.7 0.00 0.00 0.00 62 1010.5
20260508194056 18 196 3.2 12.9 0.00 0.00 0.00 62 1010.6
20260508193557 18 219 3.2 12.9 0.00 0.00 0.00 63 1010.7
20260508193100 18 187 1.6 4.8 0.00 0.00 0.00 64 1010.7
20260508193056 18 232 3.2 12.9 0.00 0.00 0.00 63 1010.6
20260508192056 18 187 1.6 4.8 0.00 0.00 0.00 62 1010.8
20260508191600 18 185 3.2 9.7 0.00 0.00 0.00 62 1011.2
20260508191556 18 152 1.6 4.8 0.00 0.00 0.00 63 1011.1
20260508191202 18 186 3.2 9.7 0.00 0.00 0.00 61 1011.2
20260508190702 18 221 1.6 6.4 0.00 0.00 0.00 59 1011.2
20260508185557 19 197 1.6 4.8 0.00 0.00 0.00 60 1011.2
20260508185100 19 215 3.2 14.5 0.00 0.00 0.00 61 1011.2
20260508185056 19 215 3.2 8.0 0.00 0.00 0.00 61 1011.2
20260508184056 19 200 4.8 14.5 0.00 0.00 0.00 59 1011.3
20260508183556 19 187 4.8 12.9 0.00 0.00 0.00 58 1011.4
20260508183056 19 267 3.2 9.7 0.00 0.00 0.00 60 1011.3
20260508182556 19 280 4.8 9.7 0.00 0.00 0.00 60 1011.4
20260508182056 19 261 4.8 11.3 0.00 0.00 0.00 60 1011.6
20260508181554 19 184 4.8 14.5 0.00 0.00 0.00 58 1011.8
20260508181054 19 232 6.4 17.7 0.00 0.00 0.00 56 1011.7
20260508180554 19 229 6.4 17.7 0.00 0.00 0.00 57 1011.7
20260508180054 19 109 4.8 14.5 0.00 0.00 0.00 58 1011.9
20260508175554 20 311 4.8 14.5 0.00 0.00 0.00 58 1011.9
20260508175052 20 210 4.8 14.5 0.00 0.00 0.00 58 1012.0
20260508174553 20 214 4.8 16.1 0.00 0.00 0.00 58 1012.0
20260508174054 20 180 4.8 16.1 0.00 0.00 0.00 56 1012.1
20260508173551 21 178 4.8 14.5 0.00 0.00 0.00 58 1012.1
20260508173048 20 205 6.4 14.5 0.00 0.00 0.00 60 1012.2
20260508172548 20 189 4.8 12.9 0.00 0.00 0.00 58 1012.2
20260508172053 20 200 4.8 19.3 0.00 0.00 0.00 60 1012.6
20260508172048 20 189 4.8 11.3 0.00 0.00 0.00 57 1012.3
20260508171548 20 215 4.8 9.7 0.00 0.00 0.00 59 1012.5
20260508170546 20 227 8.0 24.1 0.00 0.00 0.00 60 1012.6
20260508170046 20 186 8.0 24.1 0.00 0.00 0.00 60 1012.7
20260508165546 19 225 4.8 17.7 0.00 0.00 0.00 61 1012.8
20260508165046 19 263 4.8 17.7 0.00 0.00 0.00 62 1012.8
20260508164546 19 182 6.4 16.1 0.00 0.00 0.00 60 1012.8
20260508164046 18 228 6.4 16.1 0.00 0.00 0.00 57 1012.9
20260508163546 18 301 6.4 16.1 0.00 0.00 0.00 60 1013.0
20260508163046 18 236 6.4 14.5 0.00 0.00 0.00 62 1013.1
20260508162545 18 287 4.8 14.5 0.00 0.00 0.00 64 1013.4
20260508162044 17 188 3.2 14.5 0.00 0.00 0.00 64 1013.3
20260508161549 17 167 3.2 9.7 0.00 0.00 0.00 63 1013.5
20260508161545 17 134 3.2 12.9 0.00 0.00 0.00 63 1013.4
20260508160544 16 211 4.8 9.7 0.00 0.00 0.00 64 1013.6
20260508160045 16 222 3.2 9.7 0.00 0.00 0.00 64 1013.7
20260508155544 16 238 3.2 17.7 0.00 0.00 0.00 63 1013.8
20260508155044 16 196 3.2 17.7 0.00 0.00 0.00 64 1013.8
20260508154544 16 182 3.2 14.5 0.00 0.00 0.00 64 1013.8
20260508154045 16 157 3.2 14.5 0.00 0.00 0.00 64 1013.9
20260508153544 16 222 3.2 14.5 0.00 0.00 0.00 64 1013.9
20260508153042 16 196 3.2 11.3 0.00 0.00 0.00 64 1014.0
20260508152542 16 191 4.8 11.3 0.00 0.00 0.00 64 1013.9
20260508152042 16 198 3.2 9.7 0.00 0.00 0.00 64 1014.0
20260508151542 16 266 4.8 12.9 0.00 0.00 0.00 64 1014.0
20260508151046 16 161 3.2 16.1 0.00 0.00 0.00 64 1014.0
20260508151042 16 92 4.8 12.9 0.00 0.00 0.00 64 1014.0
20260508150042 16 160 3.2 16.1 0.00 0.00 0.00 64 1013.8
20260508145543 15 170 3.2 8.0 0.00 0.00 0.00 64 1014.0
20260508145042 15 154 3.2 12.9 0.00 0.00 0.00 64 1014.0
20260508144541 15 46 4.8 12.9 0.00 0.00 0.00 64 1014.1
20260508144040 15 198 3.2 11.3 0.00 0.00 0.00 64 1014.2
20260508143540 15 180 3.2 11.3 0.00 0.00 0.00 64 1014.3
20260508143045 15 202 4.8 19.3 0.00 0.00 0.00 64 1014.4
20260508143041 15 165 4.8 12.9 0.00 0.00 0.00 64 1014.4
20260508142040 15 207 4.8 19.3 0.00 0.00 0.00 63 1014.4
20260508141540 15 241 4.8 11.3 0.00 0.00 0.00 64 1014.5
20260508141040 15 200 4.8 12.9 0.00 0.00 0.00 64 1014.5
20260508140540 15 317 4.8 12.9 0.00 0.00 0.00 64 1014.6
20260508140043 14 200 4.8 12.9 0.00 0.00 0.00 64 1014.7
20260508140039 14 176 3.2 12.9 0.00 0.00 0.00 64 1014.7
20260508135644 14 123 4.8 20.9 0.00 0.00 0.00 64 1014.7
20260508134540 13 169 4.8 12.9 0.00 0.00 0.00 63 1014.7
20260508134536 14 119 4.8 20.9 0.00 0.00 0.00 64 1014.7
20260508134141 13 207 3.2 11.3 0.00 0.00 0.00 62 1014.6
20260508133641 12 238 3.2 12.9 0.00 0.00 0.00 61 1014.6
20260508133035 13 265 4.8 12.9 0.00 0.00 0.00 63 1014.6
20260508132535 12 278 4.8 12.9 0.00 0.00 0.00 63 1014.7
20260508131540 11 186 3.2 8.0 0.00 0.00 0.00 59 1014.7
20260508131536 12 168 3.2 12.9 0.00 0.00 0.00 58 1014.5
20260508130535 11 108 3.2 9.7 0.00 0.00 0.00 60 1014.8
20260508130040 10 206 4.8 12.9 0.00 0.00 0.00 54 1014.9
20260508130036 11 159 4.8 12.9 0.00 0.00 0.00 58 1014.8
20260508125036 10 240 3.2 11.3 0.00 0.00 0.00 49 1014.8
20260508124535 10 163 3.2 11.3 0.00 0.00 0.00 51 1014.9
20260508124035 9 265 3.2 9.7 0.00 0.00 0.00 49 1014.9
20260508123535 9 202 1.6 9.7 0.00 0.00 0.00 47 1014.9
20260508123044 8 230 3.2 6.4 0.00 0.00 0.00 49 1014.7
20260508123035 8 227 1.6 6.4 0.00 0.00 0.00 48 1014.9
20260508122040 8 184 3.2 6.4 0.00 0.00 0.00 47 1014.7
20260508122036 8 194 3.2 6.4 0.00 0.00 0.00 48 1014.6
20260508121036 8 184 3.2 6.4 0.00 0.00 0.00 47 1014.6
20260508120536 8 184 3.2 6.4 0.00 0.00 0.00 46 1014.7
20260508120036 8 195 1.6 6.4 0.00 0.00 0.00 46 1014.6
20260508115536 7 197 1.6 6.4 0.00 0.00 0.00 46 1014.6
20260508115035 7 165 1.6 6.4 0.00 0.00 0.00 46 1014.7
20260508114535 7 165 1.6 6.4 0.00 0.00 0.00 45 1014.6
20260508114035 7 178 1.6 4.8 0.00 0.00 0.00 43 1014.6
20260508113535 7 178 1.6 4.8 0.00 0.00 0.00 44 1014.6
20260508113035 7 178 1.6 4.8 0.00 0.00 0.00 45 1014.5
20260508112535 7 178 1.6 4.8 0.00 0.00 0.00 44 1014.4
20260508112033 7 178 1.6 4.8 0.00 0.00 0.00 43 1014.4
20260508111533 7 178 3.2 4.8 0.00 0.00 0.00 42 1014.4
20260508111032 7 178 1.6 4.8 0.00 0.00 0.00 40 1014.4
20260508110531 7 178 1.6 3.2 0.00 0.00 0.00 38 1014.4
20260508110031 7 178 1.6 4.8 0.00 0.00 0.00 38 1014.4
20260508105532 7 178 1.6 4.8 0.00 0.00 0.00 37 1014.3
20260508105034 7 57 1.6 3.2 0.00 0.00 0.00 28 1014.3
20260508105030 7 178 1.6 4.8 0.00 0.00 0.00 32 1014.3
20260508104035 7 281 1.6 3.2 0.00 0.00 0.00 20 1014.4
20260508104029 7 281 1.6 3.2 0.00 0.00 0.00 22 1014.3
20260508103034 7 281 1.6 3.2 0.00 0.00 0.00 19 1014.4
20260508103030 7 281 1.6 3.2 0.00 0.00 0.00 18 1014.4
20260508102029 7 280 1.6 3.2 0.00 0.00 0.00 18 1014.3
20260508101529 7 281 1.6 3.2 0.00 0.00 0.00 19 1014.2
20260508101027 7 281 1.6 3.2 0.00 0.00 0.00 18 1014.3
20260508100531 7 281 1.6 3.2 0.00 0.00 0.00 21 1014.3
20260508100527 7 281 1.6 3.2 0.00 0.00 0.00 19 1014.3
20260508095526 7 281 1.6 3.2 0.00 0.00 0.00 22 1014.3
20260508095025 7 281 1.6 3.2 0.00 0.00 0.00 23 1014.3
20260508094525 7 281 1.6 3.2 0.00 0.00 0.00 25 1014.4
20260508094025 7 281 0.0 3.2 0.00 0.00 0.00 28 1014.3
20260508093525 7 281 0.0 1.6 0.00 0.00 0.00 31 1014.3
20260508093025 7 281 0.0 1.6 0.00 0.00 0.00 33 1014.3
20260508092525 7 281 0.0 1.6 0.00 0.00 0.00 35 1014.3
20260508092028 7 281 0.0 1.6 0.00 0.00 0.00 39 1014.2
20260508092024 7 281 0.0 1.6 0.00 0.00 0.00 37 1014.3
20260508091024 7 281 0.0 1.6 0.00 0.00 0.00 39 1014.2